Find Starlink 31623

NORAD ID: 59272 Int'l Des: 2024-050 Owner: SPXS Country: US Constellation: starlink operational
LEOCIRCULAR

当前视图

正在加载3D地球...

About Starlink 31623

Starlink 31623 (NORAD 59272) is a starlink constellation satellite (v2 mini) launched Mar 19, 2024 by SPXS of US. It operates in LEO, CIRCULAR orbit with a mass of 730.00 kg.

即将过境

Passes for default location (London). Set your location on the main map for personalized predictions.

高度历史

Loading altitude history...

两行轨道根数

1 59272U 24050U 26237.05294673 .00000400 00000-0 22988-4 0 9999
2 59272 53.1579 116.9902 0001398 99.7976 260.3185 15.34387063136356
Epoch: Aug 25, 2026 • Age: 17 hours

当前状态

高度 463.5 km
远地点 / 近地点 N/A
速度 7.64 km/s
星下点 26.30°N, 118°W
发射日期 Mar 19, 2024
运行时间 2.4 years
类型 internet

技术详情

分类 Payload
质量 730.00 kg
干质量 700.00 kg
总质量 730.00 kg
长度 0.30 m
直径 4.10 m
跨度 29.00 m
形状 Box + pan
制造商 SPXS
平台类型 Starlink V2M
阶段状态 In Orbit
所有者/国家 SPXS/US

Most Searched